Temperature
-0 -0 -1 -1 -1 -2 -2 -0 1 2 1 1 1 -0 -1 -2 -3 -3 -3 -3 -3 -3 -3 -3 -3 -4 -4 -4 -3 -3 -3 -3 -3 -3 -3 -3 -2 -2 -2 -2 -2 -2 -2 -2
-1 -1 -2 -2 -1 -2 -2 -1 -1 -1 -1 -0 -1 -2 -2 -3 -3 -3 -3 -3 -4 -4 -4 -4 -4 -4 -4 -4 -4 -4 -4 -4 -4 -3 -3 -3 -3 -3 -3 -3 -3 -3 -3 -3
0 -2 -2 -0 -0 -2 -2 -3 -2 -1 -0 -1 -2 -2 -2 -3 -3 -3 -4 -4 -4 -4 -5 -5 -5 -5 -5 -5 -5 -4 -5 -4 -4 -4 -4 -4 -4 -4 -4 -4 -4 -3 -3 -3
-1 -1 0 2 -2 -2 -2 -3 -3 -2 -2 -2 -3 -3 -3 -3 -4 -4 -4 -5 -5 -5 -5 -5 -5 -5 -5 -5 -5 -5 -5 -5 -5 -5 -5 -5 -5 -5 -4 -4 -4 -4 -4 -4
-1 -0 1 1 -2 -3 -3 -2 -3 -3 -3 -3 -4 -4 -3 -3 -4 -5 -5 -5 -5 -6 -6 -6 -6 -6 -6 -6 -6 -6 -6 -6 -6 -6 -5 -5 -5 -5 -5 -5 -5 -5 -5 -4
-2 -1 0 1 -3 -4 -3 -1 -2 -4 -4 -4 -5 -2 -1 -4 -5 -5 -5 -6 -6 -6 -6 -6 -6 -6 -6 -6 -6 -6 -6 -6 -6 -6 -6 -6 -6 -6 -6 -6 -6 -5 -5 -5
-3 -2 -0 -1 -5 -4 -1 -0 -3 -4 -4 -5 -5 -4 -4 -5 -5 -6 -6 -6 -6 -6 -7 -7 -7 -7 -7 -7 -7 -7 -7 -7 -7 -7 -7 -7 -7 -7 -6 -6 -6 -6 -6 -6
-3 -3 -1 -4 -5 -3 -2 -3 -4 -4 -4 -5 -5 -5 -5 -6 -6 -6 -6 -7 -7 -7 -7 -7 -7 -7 -7 -7 -7 -7 -7 -7 -8 -7 -8 -7 -7 -7 -7 -7 -7 -7 -7 -6
-3 -1 -3 -5 -4 -4 -4 -4 -4 -5 -5 -5 -6 -6 -6 -6 -7 -7 -7 -7 -7 -7 -8 -8 -8 -8 -8 -8 -8 -8 -8 -8 -8 -8 -8 -8 -8 -8 -8 -8 -8 -7 -7 -7
-5 -4 -5 -5 -5 -4 -4 -5 -5 -5 -5 -6 -6 -6 -7 -7 -7 -7 -7 -7 -8 -8 -8 -8 -8 -8 -8 -8 -9 -9 -8 -8 -8 -8 -8 -8 -8 -8 -8 -8 -8 -8 -8 -8
-5 -5 -5 -5 -4 -4 -5 -5 -5 -5 -6 -6 -6 -7 -7 -7 -7 -8 -8 -8 -8 -8 -8 -8 -9 -9 -9 -9 -9 -9 -9 -9 -9 -9 -9 -9 -9 -9 -9 -8 -8 -8 -8 -8
-3 -4 -4 -4 -4 -4 -5 -5 -5 -6 -6 -7 -7 -7 -7 -7 -8 -8 -8 -8 -8 -9 -9 -9 -9 -9 -9 -9 -9 -9 -9 -9 -9 -9 -9 -9 -9 -9 -9 -9 -8 -8 -8 -8
-5 -5 -5 -5 -5 -5 -6 -6 -6 -7 -7 -7 -7 -8 -8 -8 -8 -8 -8 -9 -9 -9 -9 -9 -9 -9 -9 -10 -10 -10 -10 -10 -10 -10 -10 -10 -9 -9 -9 -9 -9 -9 -9 -9
-5 -6 -6 -6 -6 -6 -6 -7 -7 -7 -7 -7 -8 -8 -8 -8 -9 -9 -9 -9 -9 -9 -10 -10 -10 -10 -10 -10 -10 -10 -10 -10 -10 -10 -10 -10 -10 -10 -9 -9 -9 -9 -9 -9
-6 -6 -7 -7 -7 -7 -7 -8 -8 -8 -8 -8 -8 -8 -9 -9 -9 -9 -9 -9 -10 -10 -10 -10 -10 -10 -10 -10 -10 -10 -10 -10 -10 -10 -10 -10 -10 -10 -10 -10 -10 -10 -9 -9
-7 -7 -7 -8 -8 -8 -8 -8 -8 -8 -8 -8 -9 -9 -9 -9 -9 -9 -9 -10 -10 -10 -10 -10 -10 -10 -10 -11 -10 -11 -11 -11 -11 -11 -11 -11 -10 -10 -10 -10 -10 -10 -10 -10
-8 -8 -8 -8 -8 -8 -9 -9 -9 -9 -9 -9 -9 -9 -9 -9 -9 -9 -10 -10 -10 -10 -11 -11 -11 -11 -11 -11 -11 -11 -11 -11 -11 -11 -11 -11 -11 -11 -11 -11 -11 -11 -11 -10
-8 -8 -8 -8 -9 -9 -9 -9 -9 -9 -9 -9 -9 -9 -10 -10 -10 -10 -10 -10 -10 -10 -11 -11 -11 -11 -11 -11 -11 -11 -11 -11 -11 -11 -11 -11 -11 -11 -11 -11 -11 -11 -11 -11
-8 -8 -9 -9 -9 -9 -9 -9 -9 -9 -9 -10 -10 -10 -10 -10 -10 -10 -10 -11 -11 -11 -11 -11 -11 -11 -11 -11 -11 -11 -12 -12 -12 -12 -12 -12 -12 -11 -11 -11 -11 -12 -11 -11
-8 -9 -9 -9 -9 -9 -9 -9 -9 -10 -10 -10 -10 -10 -10 -10 -10 -11 -11 -11 -11 -11 -11 -12 -12 -11 -11 -12 -12 -12 -12 -12 -12 -12 -12 -12 -12 -12 -12 -12 -12 -12 -12 -12
-9 -9 -9 -9 -9 -9 -10 -10 -10 -10 -10 -10 -10 -10 -10 -11 -11 -11 -11 -11 -11 -11 -12 -12 -12 -12 -12 -12 -12 -12 -12 -12 -12 -12 -12 -12 -12 -12 -12 -12 -12 -12 -12 -12
-9 -9 -9 -9 -10 -10 -10 -10 -10 -10 -10 -10 -11 -11 -11 -11 -11 -11 -11 -12 -12 -12 -12 -12 -12 -12 -12 -12 -12 -12 -12 -12 -12 -12 -12 -12 -12 -12 -12 -12 -12 -12 -12 -12
-9 -9 -10 -10 -10 -10 -10 -10 -11 -11 -11 -11 -11 -11 -11 -11 -11 -12 -12 -12 -12 -12 -12 -12 -12 -13 -12 -12 -12 -12 -12 -12 -12 -12 -12 -12 -13 -13 -13 -13 -13 -13 -13 -13
-10 -10 -10 -10 -10 -10 -10 -11 -11 -11 -11 -11 -11 -11 -11 -12 -12 -12 -12 -12 -12 -12 -12 -13 -13 -13 -13 -12 -12 -12 -12 -12 -13 -13 -13 -13 -13 -13 -13 -13 -13 -13 -13 -13
-10 -10 -10 -10 -11 -11 -11 -11 -11 -11 -11 -11 -11 -12 -12 -12 -12 -12 -12 -13 -13 -13 -13 -13 -13 -13 -13 -13 -13 -13 -13 -13 -13 -13 -13 -13 -13 -13 -13 -13 -13 -13 -13 -13
-10 -11 -11 -11 -11 -11 -11 -11 -11 -11 -11 -11 -12 -12 -12 -12 -12 -12 -13 -13 -13 -13 -13 -13 -13 -13 -13 -13 -13 -13 -13 -13 -13 -13 -13 -13 -13 -13 -13 -13 -13 -13 -13 -13
-11 -11 -11 -11 -11 -11 -12 -12 -12 -12 -12 -12 -12 -12 -12 -13 -13 -13 -13 -13 -13 -13 -13 -13 -13 -13 -13 -13 -13 -13 -13 -13 -13 -13 -13 -13 -13 -13 -13 -13 -13 -13 -13 -13
Wind_Speed
9 8 5 8 10 10 12 11 11 11 12 13 10 9 9 8 8 8 8 8 8 8 8 8 8 8 8 8 8 8 8 8 9 8 8 8 8 7 7 7 7 8 9 9
6 5 5 9 12 13 14 13 15 15 15 12 9 8 8 8 7 8 8 9 9 9 9 9 9 9 8 8 8 8 8 9 9 8 8 8 8 7 7 7 7 7 8 9
6 3 5 9 10 12 8 9 9 12 10 6 7 8 9 8 8 9 9 9 9 9 9 9 9 9 9 9 9 8 8 9 9 8 8 8 7 7 7 7 7 8 8 8
4 3 8 3 2 5 8 8 10 9 9 8 9 10 9 7 7 8 9 9 9 9 9 9 9 9 8 8 8 8 8 9 8 8 8 8 8 7 7 7 7 7 7 8
3 5 9 5 2 4 6 7 8 10 10 8 8 8 6 4 5 7 8 8 8 8 8 8 8 8 8 8 8 8 9 9 9 8 8 8 8 8 8 7 7 7 7 7
4 5 7 2 2 2 3 6 3 6 8 6 4 6 6 3 6 8 8 7 7 7 8 8 8 8 8 8 8 8 9 9 9 8 8 8 8 8 7 7 7 7 7 7
8 8 8 2 3 4 4 3 1 4 5 4 5 6 7 7 8 7 7 7 7 7 7 7 8 7 8 8 9 9 9 9 9 8 8 8 8 7 7 7 7 7 7 7
6 7 7 4 6 6 4 2 2 3 4 5 7 7 7 8 7 7 7 7 7 7 7 7 7 7 8 9 9 9 9 9 9 8 7 7 7 7 7 7 7 7 7 7
8 7 1 7 6 4 2 3 4 4 5 5 6 7 7 7 7 7 7 7 7 7 8 8 7 7 8 9 9 9 8 8 8 8 7 7 7 7 7 6 6 6 6 6
6 8 7 7 7 6 6 6 7 6 6 6 7 7 7 7 7 7 7 7 6 7 7 8 8 8 8 9 8 8 8 8 7 7 7 7 6 6 6 6 6 6 6 6
7 7 6 7 8 9 8 7 6 6 5 6 6 7 7 7 7 7 7 6 6 7 7 9 9 9 8 8 7 8 8 7 7 7 7 7 6 6 7 6 7 7 6 5
8 6 5 6 5 5 6 6 5 5 5 5 6 6 6 6 6 6 7 7 7 7 8 8 9 9 9 7 7 7 7 7 6 6 6 6 6 7 8 8 9 9 8 7
8 5 6 7 6 4 4 5 5 5 5 5 5 5 6 6 6 6 7 7 7 8 8 8 8 9 8 7 7 7 7 7 6 6 6 6 6 6 7 7 7 8 7 7
8 5 6 6 5 4 3 4 3 4 4 4 4 5 5 5 6 6 7 7 7 7 8 8 8 8 8 7 7 7 7 7 6 6 6 6 6 6 5 6 6 6 6 6
8 7 7 5 4 3 2 2 3 4 4 4 4 4 4 5 6 7 7 6 6 7 7 7 8 8 8 7 7 7 6 5 5 6 5 5 5 5 5 5 5 5 4 5
5 5 5 5 5 4 3 3 4 5 4 5 5 5 5 6 6 6 6 5 6 7 7 8 8 8 8 7 7 6 5 7 7 5 5 5 5 4 4 4 4 4 4 4
3 4 4 5 5 5 5 5 5 5 5 5 5 5 5 5 6 6 6 6 6 7 7 7 8 8 7 7 6 5 5 6 7 5 4 4 4 4 4 4 4 4 4 4
6 6 5 5 5 5 5 5 5 5 5 5 4 4 4 5 6 6 7 6 6 7 7 7 7 7 7 7 6 5 5 4 4 4 4 4 4 4 4 4 4 4 4 4
4 4 4 4 4 4 4 4 5 5 5 4 4 4 5 5 5 6 6 6 6 7 7 8 10 7 7 7 6 5 5 4 4 4 4 5 5 4 4 4 4 4 4 3
3 3 3 3 3 3 3 3 4 4 4 3 3 4 4 5 5 5 5 5 5 6 7 8 8 7 6 6 7 4 4 4 4 4 4 4 4 4 4 4 4 4 4 3
3 3 3 3 3 3 3 3 3 3 3 3 3 4 5 5 5 4 5 5 6 6 7 8 6 6 6 6 6 4 4 4 4 4 4 4 4 4 4 4 4 4 4 3
3 3 3 3 3 3 3 2 2 3 3 3 3 3 4 5 5 4 4 4 6 8 6 5 5 7 7 7 4 4 4 4 4 4 4 4 4 4 4 4 4 4 4 4
3 3 3 3 3 3 3 2 2 2 3 3 3 4 4 4 4 4 5 4 5 7 6 5 7 9 8 5 4 4 4 4 4 4 4 4 4 4 4 4 4 4 4 4
3 3 3 2 2 2 3 3 3 2 3 3 3 3 3 3 3 3 4 6 7 7 5 6 9 9 8 4 4 4 4 4 4 4 4 4 4 4 4 4 4 4 4 5
2 2 2 2 2 2 3 3 2 2 2 2 3 3 2 2 3 3 4 4 6 6 5 6 9 9 6 4 5 5 4 4 5 4 4 4 4 4 4 4 4 5 5 5
2 2 2 2 2 2 2 2 2 2 2 2 2 2 2 2 3 3 3 4 5 6 5 4 5 6 5 5 5 5 5 5 5 5 4 4 4 4 4 4 5 5 5 5
2 2 1 2 2 2 2 2 2 2 2 2 2 2 3 2 3 3 3 3 4 4 4 4 4 4 5 5 5 5 5 5 5 5 5 4 4 4 5 5 5 5 5 5
Wind_Direction
261 272 260 253 244 222 219 232 244 258 262 277 290 299 303 307 309 311 312 314 314 313 314 315 314 312 311 310 312 311 306 301 301 301 297 293 292 290 283 276 271 266 259 256
262 249 254 264 252 235 232 238 246 261 271 280 285 296 301 303 304 303 305 309 311 312 312 313 311 310 309 308 310 309 305 304 306 303 299 297 297 296 291 282 276 271 266 261
260 273 285 262 241 216 212 218 223 240 260 299 296 291 295 300 302 300 302 307 309 310 309 309 309 309 307 306 308 307 305 304 304 302 301 299 299 298 294 290 282 272 268 264
269 276 251 259 90 195 213 233 225 245 269 282 287 294 289 287 292 297 302 306 307 307 308 309 308 307 305 305 305 305 304 303 304 302 301 302 300 296 293 290 284 278 273 270
233 256 269 276 205 187 213 257 229 239 263 285 305 301 279 273 288 293 299 301 302 303 304 306 308 308 307 306 307 306 305 305 306 304 301 299 297 296 294 291 287 281 276 274
216 243 255 275 128 168 190 261 219 226 256 281 305 294 306 331 310 305 307 307 308 309 308 307 309 310 306 305 306 306 306 306 305 303 298 295 294 294 293 290 287 282 278 276
225 240 261 276 148 159 212 275 337 231 249 252 254 275 307 311 307 307 307 310 312 310 307 307 310 309 304 305 304 305 305 304 303 301 297 293 293 294 295 293 291 283 278 278
204 224 250 151 153 196 250 336 277 263 257 256 269 286 296 301 303 307 308 311 313 311 309 310 312 307 302 302 305 307 306 304 303 302 299 296 295 296 295 292 289 286 282 279
206 225 285 170 200 234 288 276 278 278 269 261 273 280 290 295 298 301 304 307 309 308 308 311 311 305 299 302 308 307 306 304 304 304 302 300 297 296 295 291 286 285 284 283
244 258 260 240 245 256 257 264 278 277 270 260 266 276 286 291 294 297 300 302 305 306 307 309 311 307 302 304 306 303 303 305 305 305 304 303 298 294 291 289 286 282 280 281
252 271 287 259 246 258 266 270 273 276 268 258 261 272 279 286 291 293 297 299 299 298 299 303 308 308 308 307 305 302 301 303 304 303 302 302 299 295 292 285 285 283 277 277
248 250 246 271 276 272 259 259 260 267 276 272 260 266 277 282 285 290 294 298 298 298 300 304 307 308 310 308 302 298 301 302 302 302 301 300 301 299 296 293 298 294 287 283
256 273 266 277 287 278 269 270 268 262 265 271 270 270 274 282 285 290 292 295 296 297 299 301 305 307 310 309 301 295 294 297 299 299 300 300 301 302 305 308 309 310 301 293
258 266 270 270 277 288 287 286 283 277 275 273 272 275 277 282 287 289 291 294 296 297 298 301 304 306 311 311 304 297 295 296 297 296 298 298 299 299 302 306 312 314 315 315
262 255 260 279 290 297 298 298 292 288 293 294 287 282 285 288 289 291 295 299 300 299 301 304 305 307 314 314 308 302 299 299 297 295 295 297 299 302 306 306 307 314 324 328
286 274 261 263 273 285 292 289 281 283 288 289 289 290 290 290 291 294 298 301 302 302 304 304 302 307 312 311 307 304 300 302 306 303 301 303 305 310 311 311 313 319 322 322
263 269 266 271 272 276 273 269 266 271 277 277 282 290 294 296 299 301 304 305 300 295 297 299 303 309 310 308 306 303 303 306 309 306 306 309 311 312 312 313 314 312 314 324
249 258 257 257 261 269 273 271 266 268 270 274 282 285 286 288 293 298 305 310 310 308 308 310 311 313 312 312 308 304 305 306 307 308 309 312 312 312 314 313 316 315 317 323
269 269 273 269 266 263 267 268 271 272 272 271 274 277 280 282 289 297 305 308 309 313 320 321 318 319 315 314 313 304 306 309 313 312 310 312 313 318 319 318 319 321 321 325
292 290 286 284 284 270 270 275 276 275 273 269 273 282 291 295 298 300 301 296 296 305 313 315 317 316 314 312 312 307 310 312 312 313 315 315 315 318 319 321 322 322 323 325
298 295 290 291 296 287 278 278 275 281 286 276 269 278 288 296 299 298 299 304 314 318 317 317 320 315 314 318 315 315 315 314 313 313 315 318 319 320 321 322 321 320 319 318
298 292 289 291 292 293 296 291 279 280 288 291 288 289 294 301 303 299 290 292 310 320 324 320 319 319 327 327 323 321 320 319 316 315 316 317 317 317 319 320 319 319 316 313
295 289 287 286 282 288 302 301 290 280 280 283 284 288 290 293 296 298 307 315 319 321 325 321 325 329 335 334 327 323 320 318 316 316 315 315 313 311 311 313 313 313 313 312
297 297 296 298 295 290 299 306 305 291 282 280 278 281 286 294 300 300 304 314 326 327 326 326 334 338 342 341 334 331 327 322 318 315 314 313 313 311 309 310 311 311 310 309
294 297 301 296 287 286 291 302 309 306 303 304 310 313 308 298 295 308 317 320 326 333 332 335 341 345 347 340 340 337 334 330 326 321 317 316 314 312 311 309 307 306 306 304
296 291 286 278 281 287 289 291 295 298 304 315 326 329 328 325 319 319 323 329 331 334 336 335 337 340 342 339 338 335 331 329 329 330 328 321 316 312 309 310 310 307 305 305
307 306 303 305 304 292 283 280 285 291 291 293 308 318 324 327 329 333 333 332 334 336 335 335 336 336 336 335 335 334 332 331 329 328 327 324 320 316 315 313 311 310 307 306
Height
1524 1524 1526 1524 1524 1528 1527 1518 1513 1503 1504 1500 1501 1502 1502 1501 1499 1497 1495 1493 1491 1488 1485 1482 1479 1477 1474 1471 1468 1466 1463 1461 1457 1455 1454 1452 1450 1449 1448 1447 1447 1446 1446 1445
1525 1524 1525 1522 1517 1518 1519 1518 1513 1509 1505 1500 1501 1501 1499 1498 1496 1494 1492 1491 1488 1486 1483 1479 1476 1473 1470 1467 1464 1462 1459 1456 1453 1452 1450 1448 1446 1444 1442 1441 1441 1440 1439 1439
1515 1522 1522 1509 1505 1509 1511 1510 1509 1505 1500 1499 1499 1498 1497 1495 1494 1492 1490 1488 1485 1482 1480 1476 1473 1470 1466 1464 1461 1458 1455 1453 1450 1448 1445 1443 1441 1438 1437 1435 1435 1434 1433 1433
1518 1519 1509 1495 1504 1503 1504 1503 1504 1501 1499 1499 1498 1496 1494 1493 1491 1489 1487 1484 1482 1479 1476 1473 1470 1467 1464 1460 1457 1454 1451 1449 1446 1443 1440 1438 1435 1433 1432 1430 1429 1428 1427 1426
1519 1511 1498 1497 1502 1503 1503 1498 1497 1498 1496 1496 1495 1492 1489 1488 1488 1486 1484 1482 1479 1476 1473 1470 1466 1463 1459 1456 1453 1450 1447 1444 1442 1439 1436 1434 1431 1429 1428 1426 1424 1422 1421 1420
1519 1511 1498 1491 1500 1501 1502 1495 1492 1493 1493 1493 1493 1489 1485 1485 1484 1482 1480 1478 1475 1472 1469 1466 1463 1460 1456 1452 1449 1446 1443 1440 1438 1435 1432 1430 1427 1425 1423 1421 1419 1417 1415 1414
1516 1509 1496 1496 1500 1501 1497 1488 1489 1489 1490 1490 1490 1488 1486 1483 1481 1479 1476 1474 1471 1469 1466 1463 1459 1456 1452 1449 1446 1443 1440 1437 1434 1431 1428 1426 1423 1421 1418 1416 1414 1412 1410 1409
1513 1509 1497 1495 1497 1496 1489 1488 1487 1487 1486 1486 1485 1484 1482 1480 1477 1475 1473 1470 1468 1464 1461 1459 1456 1452 1449 1445 1442 1439 1436 1432 1429 1427 1424 1421 1419 1416 1414 1412 1409 1407 1405 1404
1501 1493 1490 1490 1489 1488 1488 1486 1485 1484 1483 1483 1481 1479 1478 1476 1474 1472 1469 1467 1464 1461 1458 1455 1452 1449 1445 1441 1438 1435 1431 1428 1426 1423 1420 1417 1415 1412 1410 1407 1405 1403 1401 1399
1497 1489 1488 1488 1486 1486 1485 1484 1482 1481 1480 1479 1477 1476 1474 1472 1470 1468 1466 1463 1460 1457 1454 1451 1448 1445 1441 1438 1434 1431 1428 1425 1422 1419 1416 1413 1411 1408 1405 1402 1400 1398 1396 1395
1492 1487 1485 1482 1482 1481 1481 1480 1479 1477 1476 1475 1474 1472 1471 1469 1466 1464 1462 1459 1457 1454 1450 1447 1444 1441 1437 1434 1431 1427 1424 1421 1418 1416 1413 1409 1407 1404 1401 1398 1397 1394 1392 1391
1482 1481 1481 1479 1478 1477 1476 1475 1474 1473 1472 1471 1470 1469 1467 1465 1463 1461 1458 1456 1453 1450 1447 1443 1440 1437 1433 1430 1427 1424 1421 1418 1415 1412 1409 1406 1403 1400 1397 1395 1393 1391 1389 1389
1478 1477 1477 1475 1474 1473 1472 1471 1471 1470 1468 1467 1466 1465 1463 1461 1459 1457 1455 1452 1449 1446 1443 1440 1436 1433 1430 1427 1424 1421 1418 1415 1412 1409 1406 1403 1400 1397 1394 1392 1390 1388 1386 1385
1475 1475 1473 1471 1471 1470 1469 1468 1467 1466 1465 1464 1463 1461 1460 1458 1456 1453 1451 1448 1446 1443 1440 1436 1433 1430 1427 1423 1421 1418 1415 1412 1409 1406 1404 1401 1398 1395 1392 1390 1387 1385 1384 1382
1471 1471 1470 1468 1467 1466 1465 1464 1463 1462 1462 1461 1460 1458 1456 1454 1452 1450 1448 1445 1442 1439 1436 1433 1429 1426 1423 1420 1417 1414 1412 1409 1406 1403 1400 1398 1395 1393 1390 1388 1386 1383 1381 1380
1467 1466 1465 1464 1463 1462 1462 1461 1460 1459 1458 1457 1456 1455 1453 1451 1449 1446 1444 1442 1439 1435 1432 1429 1426 1423 1420 1417 1414 1411 1408 1406 1403 1400 1397 1395 1392 1390 1388 1386 1384 1382 1380 1379
1464 1462 1461 1460 1460 1459 1459 1458 1457 1456 1455 1454 1453 1451 1449 1448 1445 1443 1441 1439 1436 1433 1430 1426 1423 1420 1417 1415 1411 1408 1405 1403 1400 1398 1395 1393 1390 1388 1386 1384 1382 1381 1379 1378
1460 1459 1458 1458 1457 1456 1455 1455 1454 1453 1452 1451 1449 1448 1446 1444 1442 1439 1437 1435 1432 1430 1427 1424 1421 1418 1415 1412 1409 1406 1403 1400 1398 1395 1393 1391 1389 1387 1384 1383 1381 1379 1378 1377
1457 1456 1455 1455 1454 1453 1453 1452 1451 1450 1449 1448 1446 1445 1443 1441 1439 1437 1434 1432 1429 1426 1424 1421 1418 1415 1413 1410 1407 1404 1401 1398 1396 1394 1391 1389 1387 1385 1383 1381 1379 1378 1376 1375
1455 1454 1453 1452 1451 1451 1450 1449 1448 1447 1446 1445 1443 1442 1440 1438 1437 1434 1432 1429 1427 1425 1422 1419 1416 1413 1410 1407 1405 1402 1399 1396 1394 1392 1389 1387 1385 1383 1382 1380 1378 1377 1375 1374
1453 1452 1451 1450 1449 1448 1448 1447 1446 1444 1443 1442 1441 1439 1437 1436 1434 1432 1429 1427 1425 1422 1420 1417 1414 1411 1408 1406 1403 1400 1397 1395 1392 1390 1388 1386 1384 1382 1380 1379 1377 1376 1374 1373
1451 1450 1449 1448 1447 1446 1445 1444 1443 1442 1441 1440 1438 1437 1435 1433 1432 1429 1427 1425 1422 1420 1417 1415 1412 1409 1407 1404 1401 1399 1396 1393 1391 1388 1386 1384 1382 1381 1379 1377 1375 1374 1373 1371
1450 1448 1447 1446 1445 1444 1443 1442 1441 1440 1439 1438 1436 1435 1433 1431 1429 1427 1425 1423 1420 1418 1416 1413 1410 1408 1405 1402 1400 1397 1394 1392 1389 1387 1385 1383 1381 1379 1377 1375 1374 1372 1371 1370
1448 1446 1445 1444 1443 1442 1441 1440 1439 1438 1437 1436 1434 1433 1431 1429 1428 1426 1424 1421 1419 1417 1414 1411 1409 1406 1404 1401 1398 1396 1393 1390 1388 1386 1383 1381 1380 1378 1376 1374 1373 1371 1370 1368
1446 1445 1443 1442 1441 1440 1439 1438 1437 1436 1435 1434 1432 1431 1429 1428 1426 1424 1422 1420 1417 1415 1413 1410 1408 1405 1402 1400 1397 1394 1392 1389 1387 1384 1382 1380 1378 1376 1375 1373 1371 1369 1368 1366
1444 1443 1442 1441 1440 1439 1437 1436 1435 1434 1433 1431 1430 1429 1428 1426 1424 1422 1420 1418 1416 1414 1411 1409 1406 1404 1401 1398 1396 1393 1391 1388 1386 1384 1381 1379 1377 1375 1374 1372 1370 1368 1366 1365
1442 1441 1440 1439 1438 1437 1436 1434 1433 1432 1431 1430 1428 1427 1426 1424 1423 1421 1419 1417 1415 1413 1410 1408 1405 1403 1400 1397 1395 1393 1390 1388 1385 1383 1381 1379 1377 1375 1373 1371 1369 1367 1365 1364